contact:dominique.lefevre@mio.osupytheas.fr, maurice.libes@osupytheas.fr, didier.mallarino@osupytheas.fr
Project:EMSO http://www.emso-fr.org/EMSO-France
Depth: 2436.0 m
Title:EMSO Ligure Ouest : Data MII capteur AQUADOPP
Date,Latitude,Longitude,X_East,Y_North,Z_Up,Amplitude_X,Amplitude_Y,Amplitude_Z,Batterie,SoundSpeed,Heading,Pitch,Roll,Pressure,TIS,Speed,Direction
, degrees North, degrees East, m.s-1, m.s-1,m.s-1, 1, 1, 1, Volt, m.s-1, degree, degree, degree, dbar, degree_C, m.s-1, degree
2023-02-02T00:04:03,42.805,6.029,-0.013,0.001,-0.006,103.0,101.0,101.0,13.4,1505.2,319.9,-0.8,1.8,2471.159,13.29,0.013,274.4
2023-02-02T00:07:03,42.805,6.029,-0.019,0.016,-0.002,102.0,102.0,101.0,13.4,1505.2,330.3,-0.8,1.8,2471.134,13.29,0.024,310.1
2023-02-02T00:10:03,42.805,6.029,0.0,-0.003,0.007,102.0,101.0,103.0,13.3,1505.2,318.1,-0.8,1.8,2471.135,13.29,0.003,180.0
2023-02-02T00:13:03,42.805,6.029,-0.054,-0.014,-0.019,103.0,102.0,100.0,13.4,1505.2,330.0,-0.8,1.8,2471.103,13.29,0.055,255.5
2023-02-02T00:16:03,42.805,6.029,-0.046,0.0,-0.006,102.0,102.0,101.0,13.3,1505.2,323.9,-0.8,1.8,2471.15,13.29,0.046,270.0
2023-02-02T00:19:03,42.805,6.029,-0.043,-0.003,-0.014,102.0,102.0,101.0,13.4,1505.2,326.3,-0.7,1.8,2471.142,13.29,0.043,266.0
2023-02-02T00:22:03,42.805,6.029,-0.032,0.0,-0.011,101.0,103.0,100.0,13.4,1505.2,336.0,-0.8,1.8,2471.087,13.29,0.032,270.0
2023-02-02T00:25:03,42.805,6.029,-0.029,-0.011,-0.015,103.0,102.0,100.0,13.4,1505.2,318.1,-0.8,1.8,2471.12,13.29,0.031,249.2
2023-02-02T00:28:03,42.805,6.029,-0.023,-0.011,0.001,101.0,101.0,102.0,13.4,1505.2,325.5,-0.7,1.8,2471.137,13.29,0.025,244.4
2023-02-02T00:31:03,42.805,6.029,-0.033,-0.009,-0.024,103.0,101.0,101.0,13.3,1505.2,330.6,-0.8,1.8,2471.127,13.29,0.034,254.7
2023-02-02T00:34:03,42.805,6.029,-0.023,-0.006,-0.023,101.0,102.0,101.0,13.3,1505.2,321.2,-0.7,1.8,2471.115,13.29,0.023,255.4
2023-02-02T00:37:03,42.805,6.029,-0.01,-0.007,0.022,101.0,102.0,102.0,13.4,1505.2,316.8,-0.8,1.8,2471.1,13.29,0.012,235.0
2023-02-02T00:40:03,42.805,6.029,-0.023,-0.003,0.003,102.0,103.0,101.0,13.3,1505.2,320.3,-0.8,1.8,2471.168,13.29,0.023,262.6
2023-02-02T00:43:03,42.805,6.029,-0.012,0.002,0.012,102.0,101.0,102.0,13.4,1505.2,339.2,-0.8,1.8,2471.1,13.29,0.012,279.5
2023-02-02T00:46:03,42.805,6.029,-0.043,0.007,-0.002,102.0,102.0,102.0,13.4,1505.2,328.7,-0.7,1.8,2471.112,13.29,0.043,279.2
2023-02-02T00:49:03,42.805,6.029,-0.008,0.001,0.003,101.0,102.0,102.0,13.4,1505.2,329.5,-0.8,1.8,2471.066,13.29,0.008,277.1
2023-02-02T00:52:03,42.805,6.029,-0.014,-0.013,-0.014,102.0,102.0,102.0,13.4,1505.2,315.0,-0.8,1.8,2471.136,13.29,0.019,227.1
2023-02-02T00:55:03,42.805,6.029,-0.024,0.007,-0.007,102.0,102.0,102.0,13.4,1505.2,330.4,-0.8,1.8,2471.117,13.29,0.025,286.3
2023-02-02T00:58:03,42.805,6.029,-0.017,0.008,-0.008,103.0,103.0,103.0,13.4,1505.2,325.2,-0.8,1.8,2471.127,13.29,0.018,295.2
2023-02-02T01:04:03,42.805,6.029,0.002,0.026,-0.014,102.0,103.0,104.0,13.3,1505.2,325.0,-0.8,1.8,2471.146,13.29,0.026,4.4
2023-02-02T01:07:03,42.805,6.029,-0.005,-0.027,-0.021,101.0,106.0,103.0,13.3,1505.2,328.7,-0.8,1.8,2471.195,13.29,0.027,190.5
2023-02-02T01:10:03,42.805,6.029,0.0,-0.005,0.0,101.0,103.0,102.0,13.4,1505.2,321.8,-0.8,1.8,2471.146,13.29,0.005,180.0
2023-02-02T01:13:03,42.805,6.029,-0.029,0.007,0.002,103.0,102.0,101.0,13.4,1505.2,335.8,-0.8,1.8,2471.173,13.29,0.029,283.6
2023-02-02T01:16:03,42.805,6.029,-0.015,0.0,-0.006,102.0,101.0,101.0,13.4,1505.2,325.0,-0.8,1.9,2471.145,13.29,0.015,270.0
2023-02-02T01:19:03,42.805,6.029,-0.021,-0.005,-0.004,103.0,103.0,101.0,13.4,1505.2,318.1,-0.8,1.8,2471.167,13.29,0.021,256.6
2023-02-02T01:22:03,42.805,6.029,-0.016,0.004,0.023,102.0,102.0,101.0,13.4,1505.2,331.4,-0.8,1.8,2471.133,13.29,0.016,284.0
2023-02-02T01:25:03,42.805,6.029,-0.014,0.008,0.01,101.0,101.0,101.0,13.4,1505.2,320.6,-0.8,1.8,2471.139,13.29,0.016,299.7
2023-02-02T01:28:03,42.805,6.029,-0.036,0.015,0.005,101.0,101.0,101.0,13.4,1505.2,316.0,-0.7,1.8,2471.153,13.29,0.039,292.6
2023-02-02T01:31:03,42.805,6.029,-0.053,-0.011,-0.04,102.0,101.0,101.0,13.4,1505.2,330.1,-0.8,1.8,2471.122,13.29,0.054,258.3
2023-02-02T01:34:03,42.805,6.029,-0.012,-0.009,-0.018,101.0,101.0,102.0,13.4,1505.2,327.4,-0.7,1.8,2471.122,13.29,0.015,233.1
2023-02-02T01:37:03,42.805,6.029,-0.012,-0.004,-0.01,104.0,102.0,102.0,13.4,1505.2,318.4,-0.8,1.8,2471.111,13.29,0.012,251.6
2023-02-02T01:40:03,42.805,6.029,-0.011,-0.008,-0.024,103.0,100.0,102.0,13.3,1505.2,323.8,-0.7,1.8,2471.122,13.29,0.013,234.0
2023-02-02T01:43:03,42.805,6.029,-0.015,-0.005,-0.015,101.0,102.0,101.0,13.4,1505.2,321.7,-0.8,1.8,2471.144,13.29,0.015,251.6
2023-02-02T01:46:03,42.805,6.029,-0.013,0.001,0.017,103.0,102.0,101.0,13.4,1505.2,340.4,-0.8,1.8,2471.171,13.29,0.013,274.4
2023-02-02T01:49:03,42.805,6.029,-0.005,-0.01,-0.015,100.0,103.0,102.0,13.4,1505.2,331.6,-0.8,1.8,2471.186,13.29,0.011,206.6
2023-02-02T01:52:03,42.805,6.029,0.014,0.001,0.028,102.0,102.0,102.0,13.3,1505.2,324.2,-0.8,1.8,2471.149,13.29,0.014,85.9
2023-02-02T01:55:03,42.805,6.029,-0.003,-0.001,0.005,103.0,102.0,102.0,13.4,1505.2,328.0,-0.8,1.8,2471.116,13.29,0.003,251.6
2023-02-02T01:58:03,42.805,6.029,-0.041,0.02,0.026,103.0,103.0,101.0,13.3,1505.2,330.7,-0.8,1.8,2471.182,13.29,0.045,296.0
2023-02-02T02:04:03,42.805,6.029,-0.033,0.013,-0.037,103.0,103.0,101.0,13.4,1505.2,315.5,-0.8,1.8,2471.226,13.29,0.035,291.5
2023-02-02T02:07:03,42.805,6.029,-0.028,-0.001,0.012,102.0,102.0,101.0,13.3,1505.2,320.0,-0.8,1.8,2471.209,13.29,0.028,268.0
2023-02-02T02:10:03,42.805,6.029,-0.018,-0.006,-0.012,104.0,101.0,101.0,13.4,1505.2,332.3,-0.8,1.8,2471.196,13.29,0.018,251.6
2023-02-02T02:13:03,42.805,6.029,-0.023,0.009,-0.002,100.0,104.0,100.0,13.3,1505.2,332.6,-0.8,1.8,2471.217,13.29,0.024,291.4
2023-02-02T02:16:03,42.805,6.029,-0.029,0.014,-0.016,102.0,104.0,101.0,13.4,1505.2,316.0,-0.8,1.8,2471.202,13.29,0.032,295.8
2023-02-02T02:19:03,42.805,6.029,-0.011,-0.006,0.005,103.0,102.0,101.0,13.4,1505.2,315.5,-0.8,1.8,2471.19,13.29,0.012,241.4
2023-02-02T02:22:03,42.805,6.029,-0.026,-0.014,0.005,101.0,102.0,101.0,13.4,1505.2,326.0,-0.8,1.8,2471.205,13.29,0.029,241.7
2023-02-02T02:25:03,42.805,6.029,-0.037,0.007,0.003,101.0,101.0,103.0,13.3,1505.2,337.8,-0.7,1.8,2471.159,13.29,0.037,280.7
2023-02-02T02:28:03,42.805,6.029,-0.02,0.0,0.004,105.0,102.0,101.0,13.4,1505.2,337.2,-0.8,1.8,2471.18,13.29,0.02,270.0
2023-02-02T02:31:03,42.805,6.029,-0.005,-0.009,0.0,102.0,102.0,101.0,13.4,1505.2,329.2,-0.8,1.8,2471.197,13.29,0.01,209.1
2023-02-02T02:34:03,42.805,6.029,-0.012,0.004,-0.018,103.0,101.0,102.0,13.4,1505.2,333.0,-0.8,1.8,2471.187,13.29,0.012,288.4
2023-02-02T02:37:03,42.805,6.029,0.018,-0.015,0.003,103.0,102.0,102.0,13.4,1505.2,316.0,-0.8,1.8,2471.159,13.29,0.023,129.8
2023-02-02T02:40:03,42.805,6.029,-0.023,0.004,0.017,102.0,102.0,103.0,13.4,1505.2,318.5,-0.7,1.8,2471.193,13.29,0.023,279.9
2023-02-02T02:43:03,42.805,6.029,-0.012,0.013,0.012,101.0,102.0,102.0,13.4,1505.2,323.8,-0.8,1.8,2471.21,13.29,0.017,317.3
2023-02-02T02:46:03,42.805,6.029,0.0,-0.008,0.001,104.0,103.0,101.0,13.4,1505.2,339.8,-0.8,1.8,2471.23,13.29,0.008,180.0
2023-02-02T02:49:03,42.805,6.029,-0.006,0.008,0.033,103.0,103.0,100.0,13.4,1505.2,338.5,-0.7,1.8,2471.214,13.29,0.01,323.1
2023-02-02T02:52:03,42.805,6.029,0.01,0.0,0.034,104.0,101.0,101.0,13.4,1505.2,321.4,-0.7,1.8,2471.224,13.29,0.01,90.0
2023-02-02T02:55:03,42.805,6.029,-0.005,-0.006,0.024,100.0,103.0,101.0,13.3,1505.2,324.2,-0.8,1.8,2471.225,13.29,0.007,219.8
2023-02-02T02:58:03,42.805,6.029,-0.011,-0.004,-0.008,102.0,102.0,101.0,13.4,1505.2,333.0,-0.7,1.8,2471.176,13.29,0.011,250.0
2023-02-02T03:04:03,42.805,6.029,0.0,-0.003,-0.009,102.0,99.0,100.0,13.4,1505.2,323.2,-0.8,1.8,2471.226,13.29,0.003,180.0
2023-02-02T03:07:03,42.805,6.029,-0.009,-0.008,-0.031,102.0,102.0,101.0,13.4,1505.2,317.7,-0.8,1.9,2471.209,13.29,0.012,228.4
2023-02-02T03:10:03,42.805,6.029,-0.014,0.012,-0.011,102.0,101.0,101.0,13.3,1505.2,333.8,-0.7,1.8,2471.259,13.29,0.018,310.6
2023-02-02T03:13:03,42.805,6.029,-0.03,0.003,0.009,101.0,102.0,101.0,13.4,1505.2,338.5,-0.7,1.8,2471.234,13.29,0.03,275.7
2023-02-02T03:16:03,42.805,6.029,-0.023,-0.001,-0.016,101.0,102.0,101.0,13.4,1505.2,324.5,-0.8,1.8,2471.241,13.29,0.023,267.5
2023-02-02T03:19:03,42.805,6.029,-0.013,-0.011,-0.021,102.0,102.0,102.0,13.4,1505.2,325.2,-0.7,1.8,2471.205,13.29,0.017,229.8
2023-02-02T03:22:03,42.805,6.029,-0.021,0.007,0.021,104.0,103.0,102.0,13.3,1505.2,335.0,-0.8,1.8,2471.223,13.29,0.022,288.4
2023-02-02T03:25:03,42.805,6.029,-0.025,-0.009,-0.001,101.0,102.0,102.0,13.4,1505.2,326.5,-0.8,1.9,2471.242,13.29,0.026,250.2
2023-02-02T03:28:03,42.805,6.029,-0.004,0.0,0.008,102.0,101.0,101.0,13.4,1505.2,331.2,-0.8,1.8,2471.214,13.29,0.004,270.0
2023-02-02T03:31:03,42.805,6.029,-0.031,-0.003,0.021,103.0,101.0,101.0,13.3,1505.2,326.0,-0.8,1.9,2471.218,13.29,0.031,264.5
2023-02-02T03:34:03,42.805,6.029,-0.038,0.013,0.01,102.0,102.0,101.0,13.4,1505.2,328.6,-0.8,1.8,2471.234,13.29,0.04,288.9
2023-02-02T03:37:03,42.805,6.029,-0.03,-0.017,-0.015,102.0,102.0,101.0,13.4,1505.2,318.8,-0.8,1.8,2471.227,13.29,0.034,240.5
2023-02-02T03:40:03,42.805,6.029,-0.038,0.002,-0.032,101.0,101.0,102.0,13.4,1505.2,326.9,-0.8,1.8,2471.213,13.29,0.038,273.0
2023-02-02T03:43:03,42.805,6.029,-0.018,0.004,-0.007,102.0,101.0,102.0,13.4,1505.2,330.0,-0.7,1.8,2471.249,13.29,0.018,282.5
2023-02-02T03:46:03,42.805,6.029,-0.006,0.019,0.029,103.0,102.0,100.0,13.3,1505.2,331.7,-0.8,1.8,2471.223,13.29,0.019,342.5
2023-02-02T03:49:03,42.805,6.029,-0.02,0.008,0.014,101.0,102.0,103.0,13.4,1505.2,336.6,-0.8,1.8,2471.199,13.29,0.021,291.8
2023-02-02T03:52:03,42.805,6.029,0.0,-0.009,0.006,102.0,102.0,102.0,13.3,1505.2,330.4,-0.8,1.8,2471.261,13.29,0.009,180.0
2023-02-02T03:55:03,42.805,6.029,-0.012,0.003,-0.052,102.0,102.0,101.0,13.4,1505.2,324.3,-0.7,1.8,2471.236,13.29,0.012,284.0
2023-02-02T03:58:03,42.805,6.029,-0.001,0.008,-0.004,102.0,102.0,101.0,13.3,1505.2,338.3,-0.8,1.8,2471.226,13.29,0.008,352.9
2023-02-02T04:04:03,42.805,6.029,-0.011,-0.003,0.0,102.0,103.0,101.0,13.4,1505.2,332.1,-0.8,1.8,2471.272,13.29,0.011,254.7
2023-02-02T04:07:03,42.805,6.029,-0.012,-0.01,-0.012,104.0,101.0,100.0,13.4,1505.2,317.6,-0.7,1.8,2471.313,13.29,0.015,230.2
2023-02-02T04:10:03,42.805,6.029,-0.01,0.006,0.041,101.0,103.0,100.0,13.4,1505.2,327.0,-0.8,1.8,2471.276,13.29,0.011,301.0
2023-02-02T04:13:03,42.805,6.029,-0.034,-0.011,-0.013,103.0,102.0,100.0,13.4,1505.2,320.7,-0.8,1.8,2471.283,13.29,0.035,252.1
2023-02-02T04:16:03,42.805,6.029,-0.018,-0.008,-0.008,102.0,102.0,102.0,13.4,1505.2,316.1,-0.7,1.8,2471.279,13.29,0.019,246.0
2023-02-02T04:19:03,42.805,6.029,-0.01,0.0,0.001,103.0,102.0,101.0,13.4,1505.2,323.8,-0.8,1.8,2471.295,13.29,0.01,270.0
2023-02-02T04:22:03,42.805,6.029,-0.004,0.01,0.031,102.0,102.0,101.0,13.4,1505.2,331.4,-0.8,1.8,2471.243,13.29,0.01,338.2
2023-02-02T04:25:03,42.805,6.029,-0.031,0.011,0.031,101.0,102.0,101.0,13.4,1505.2,328.7,-0.8,1.8,2471.253,13.29,0.032,289.5
2023-02-02T04:28:03,42.805,6.029,-0.036,0.002,-0.001,103.0,102.0,101.0,13.3,1505.2,335.1,-0.8,1.8,2471.265,13.29,0.036,273.2
2023-02-02T04:31:03,42.805,6.029,-0.018,-0.022,-0.005,101.0,101.0,101.0,13.3,1505.2,336.6,-0.8,1.8,2471.27,13.29,0.028,219.3
2023-02-02T04:34:03,42.805,6.029,-0.015,-0.007,-0.009,102.0,102.0,101.0,13.4,1505.2,316.6,-0.8,1.8,2471.279,13.29,0.016,245.0
2023-02-02T04:37:03,42.805,6.029,-0.007,0.008,0.038,102.0,102.0,102.0,13.3,1505.2,333.4,-0.8,1.8,2471.285,13.29,0.01,318.8
2023-02-02T04:40:03,42.805,6.029,-0.01,0.0,0.021,102.0,102.0,102.0,13.4,1505.2,337.7,-0.8,1.8,2471.234,13.29,0.01,270.0
2023-02-02T04:43:03,42.805,6.029,-0.022,-0.026,-0.002,101.0,102.0,101.0,13.4,1505.2,320.7,-0.8,1.8,2471.303,13.29,0.034,220.2
2023-02-02T04:46:03,42.805,6.029,-0.014,0.01,0.007,102.0,102.0,101.0,13.4,1505.2,334.2,-0.8,1.8,2471.278,13.29,0.017,305.5
2023-02-02T04:49:03,42.805,6.029,-0.015,0.001,-0.023,101.0,102.0,101.0,13.3,1505.2,330.9,-0.8,1.8,2471.235,13.29,0.015,273.8
2023-02-02T04:52:03,42.805,6.029,-0.012,-0.005,-0.015,102.0,102.0,102.0,13.3,1505.2,324.8,-0.8,1.8,2471.276,13.29,0.013,247.4
2023-02-02T04:55:03,42.805,6.029,0.0,-0.003,0.029,103.0,100.0,102.0,13.4,1505.2,335.4,-0.8,1.8,2471.251,13.29,0.003,180.0
2023-02-02T04:58:03,42.805,6.029,-0.03,-0.003,-0.042,102.0,102.0,101.0,13.3,1505.2,335.6,-0.8,1.8,2471.255,13.29,0.03,264.3
2023-02-02T05:04:03,42.805,6.029,-0.014,-0.001,0.019,102.0,102.0,102.0,13.4,1505.2,320.9,-0.7,1.8,2471.322,13.29,0.014,265.9
2023-02-02T05:07:03,42.805,6.029,-0.004,-0.019,-0.02,102.0,102.0,101.0,13.3,1505.2,321.7,-0.8,1.8,2471.307,13.29,0.019,191.9
2023-02-02T05:10:03,42.805,6.029,0.015,-0.031,0.019,102.0,102.0,101.0,13.3,1505.2,329.4,-0.7,1.8,2471.314,13.29,0.034,154.2
2023-02-02T05:13:03,42.805,6.029,-0.006,-0.003,0.015,104.0,103.0,101.0,13.3,1505.2,322.5,-0.8,1.8,2471.288,13.29,0.006,243.4
2023-02-02T05:16:03,42.805,6.029,-0.019,0.019,0.004,103.0,102.0,101.0,13.4,1505.2,322.3,-0.8,1.8,2471.262,13.29,0.026,315.0
2023-02-02T05:19:03,42.805,6.029,-0.018,0.01,0.008,103.0,102.0,100.0,13.3,1505.2,334.3,-0.8,1.8,2471.29,13.29,0.02,299.1
2023-02-02T05:22:03,42.805,6.029,-0.013,-0.007,-0.003,103.0,102.0,102.0,13.4,1505.2,334.9,-0.8,1.8,2471.269,13.3,0.014,241.7
2023-02-02T05:25:03,42.805,6.029,-0.005,0.0,-0.022,102.0,102.0,103.0,13.3,1505.2,336.6,-0.7,1.8,2471.302,13.3,0.005,270.0
2023-02-02T05:28:03,42.805,6.029,-0.018,-0.002,0.002,103.0,100.0,103.0,13.4,1505.2,337.8,-0.8,1.8,2471.258,13.3,0.018,263.7
2023-02-02T05:31:03,42.805,6.029,-0.012,-0.019,-0.015,102.0,102.0,101.0,13.4,1505.2,324.0,-0.8,1.9,2471.26,13.29,0.022,212.3
2023-02-02T05:34:03,42.805,6.029,0.0,-0.018,0.0,102.0,103.0,102.0,13.3,1505.2,320.9,-0.8,1.8,2471.258,13.29,0.018,180.0
2023-02-02T05:37:03,42.805,6.029,-0.003,-0.011,0.002,103.0,101.0,101.0,13.3,1505.2,330.7,-0.8,1.8,2471.269,13.29,0.011,195.3
2023-02-02T05:40:03,42.805,6.029,-0.044,-0.004,-0.022,102.0,102.0,102.0,13.4,1505.2,330.0,-0.8,1.9,2471.276,13.29,0.044,264.8
2023-02-02T05:43:03,42.805,6.029,-0.032,-0.021,-0.026,103.0,102.0,101.0,13.3,1505.2,322.4,-0.8,1.8,2471.295,13.29,0.038,236.7
2023-02-02T05:46:03,42.805,6.029,-0.037,0.012,-0.02,102.0,102.0,101.0,13.4,1505.2,339.5,-0.8,1.8,2471.286,13.29,0.038,288.0
2023-02-02T05:49:03,42.805,6.029,-0.02,-0.007,-0.018,103.0,103.0,101.0,13.4,1505.2,338.9,-0.7,1.8,2471.284,13.29,0.021,250.7
2023-02-02T05:52:03,42.805,6.029,-0.034,-0.013,-0.005,103.0,102.0,101.0,13.4,1505.2,326.9,-0.8,1.8,2471.274,13.29,0.036,249.1
2023-02-02T05:55:03,42.805,6.029,-0.017,-0.02,-0.014,103.0,101.0,102.0,13.3,1505.2,318.9,-0.7,1.8,2471.287,13.29,0.026,220.4
2023-02-02T05:58:03,42.805,6.029,-0.011,-0.003,0.011,102.0,102.0,102.0,13.3,1505.2,324.6,-0.8,1.8,2471.31,13.29,0.011,254.7
2023-02-02T06:04:03,42.805,6.029,-0.01,-0.016,0.007,102.0,103.0,101.0,13.4,1505.2,327.3,-0.7,1.8,2471.341,13.29,0.018,212.0
2023-02-02T06:07:03,42.805,6.029,-0.017,-0.014,-0.019,103.0,103.0,101.0,13.4,1505.2,324.4,-0.8,1.8,2471.337,13.29,0.022,230.5
2023-02-02T06:10:03,42.805,6.029,-0.047,-0.009,-0.02,103.0,103.0,101.0,13.3,1505.2,323.6,-0.7,1.8,2471.347,13.29,0.047,259.2
2023-02-02T06:13:03,42.805,6.029,-0.02,-0.003,-0.007,102.0,102.0,101.0,13.4,1505.2,331.3,-0.7,1.8,2471.336,13.29,0.02,261.5
2023-02-02T06:16:03,42.805,6.029,-0.014,-0.017,0.0,103.0,101.0,101.0,13.4,1505.2,326.3,-0.7,1.8,2471.313,13.29,0.022,219.5
2023-02-02T06:19:03,42.805,6.029,-0.005,-0.012,-0.021,102.0,104.0,102.0,13.4,1505.2,317.6,-0.7,1.8,2471.291,13.29,0.013,202.6
2023-02-02T06:22:03,42.805,6.029,-0.027,-0.018,0.003,101.0,101.0,102.0,13.3,1505.2,322.8,-0.7,1.8,2471.283,13.29,0.032,236.3
2023-02-02T06:25:03,42.805,6.029,-0.006,-0.036,0.0,103.0,101.0,101.0,13.3,1505.2,320.5,-0.8,1.8,2471.333,13.29,0.036,189.5
2023-02-02T06:28:03,42.805,6.029,-0.025,-0.002,-0.034,102.0,101.0,101.0,13.4,1505.2,335.5,-0.8,1.8,2471.246,13.29,0.025,265.4
2023-02-02T06:31:03,42.805,6.029,-0.03,0.0,-0.019,101.0,102.0,103.0,13.4,1505.2,335.9,-0.8,1.8,2471.311,13.29,0.03,270.0
2023-02-02T06:34:03,42.805,6.029,-0.031,0.011,-0.026,103.0,103.0,102.0,13.3,1505.2,322.8,-0.8,1.8,2471.283,13.29,0.032,289.5
2023-02-02T06:37:03,42.805,6.029,-0.033,0.0,-0.026,103.0,102.0,101.0,13.3,1505.2,318.8,-0.7,1.8,2471.309,13.29,0.033,270.0
2023-02-02T06:40:03,42.805,6.029,-0.011,-0.009,-0.014,102.0,101.0,101.0,13.4,1505.2,319.6,-0.7,1.9,2471.297,13.29,0.014,230.7
2023-02-02T06:43:03,42.805,6.029,-0.034,-0.011,-0.032,102.0,102.0,101.0,13.4,1505.2,319.2,-0.7,1.8,2471.255,13.29,0.035,252.1
2023-02-02T06:46:03,42.805,6.029,0.0,-0.025,-0.013,104.0,103.0,101.0,13.3,1505.2,332.2,-0.8,1.8,2471.3,13.29,0.025,180.0
2023-02-02T06:49:03,42.805,6.029,-0.002,-0.008,-0.013,102.0,101.0,102.0,13.3,1505.2,322.8,-0.8,1.8,2471.266,13.29,0.008,194.0
2023-02-02T06:52:03,42.805,6.029,-0.018,0.0,-0.013,102.0,102.0,102.0,13.3,1505.2,320.3,-0.8,1.8,2471.309,13.29,0.018,270.0
2023-02-02T06:55:03,42.805,6.029,-0.035,-0.027,-0.014,101.0,102.0,102.0,13.4,1505.2,323.1,-0.8,1.8,2471.279,13.29,0.044,232.3
2023-02-02T06:58:03,42.805,6.029,-0.008,0.006,-0.024,102.0,101.0,102.0,13.3,1505.2,326.5,-0.8,1.8,2471.263,13.29,0.01,306.9
2023-02-02T07:04:03,42.805,6.029,-0.007,-0.009,-0.018,102.0,102.0,102.0,13.4,1505.2,326.5,-0.8,1.8,2471.336,13.29,0.011,217.9
2023-02-02T07:07:03,42.805,6.029,-0.009,0.005,0.007,103.0,102.0,101.0,13.3,1505.2,330.7,-0.8,1.8,2471.355,13.29,0.01,299.1
2023-02-02T07:10:03,42.805,6.029,-0.015,-0.015,-0.026,102.0,102.0,101.0,13.3,1505.2,323.6,-0.8,1.8,2471.324,13.29,0.021,225.0
2023-02-02T07:13:03,42.805,6.029,-0.019,-0.012,-0.023,101.0,103.0,102.0,13.4,1505.2,336.9,-0.8,1.9,2471.355,13.29,0.022,237.7
2023-02-02T07:16:03,42.805,6.029,-0.022,0.009,-0.013,102.0,101.0,101.0,13.4,1505.2,339.1,-0.8,1.9,2471.313,13.29,0.023,292.2
2023-02-02T07:19:03,42.805,6.029,-0.019,0.0,-0.007,102.0,102.0,102.0,13.4,1505.2,334.5,-0.8,1.8,2471.319,13.29,0.019,270.0
2023-02-02T07:22:03,42.805,6.029,-0.045,0.014,-0.002,102.0,103.0,100.0,13.4,1505.2,336.4,-0.8,1.8,2471.275,13.29,0.047,287.3
2023-02-02T07:25:03,42.805,6.029,-0.014,-0.015,-0.042,101.0,102.0,101.0,13.4,1505.2,319.1,-0.7,1.8,2471.277,13.29,0.02,223.0
2023-02-02T07:28:03,42.805,6.029,-0.012,-0.017,-0.028,101.0,103.0,102.0,13.3,1505.2,319.6,-0.8,1.8,2471.306,13.29,0.02,215.2
2023-02-02T07:31:03,42.805,6.029,-0.023,0.017,0.0,101.0,102.0,102.0,13.3,1505.2,319.2,-0.8,1.8,2471.272,13.29,0.028,306.5
2023-02-02T07:34:03,42.805,6.029,-0.003,0.0,0.006,102.0,103.0,102.0,13.3,1505.2,333.4,-0.8,1.8,2471.288,13.29,0.003,270.0
2023-02-02T07:37:03,42.805,6.029,-0.003,-0.001,-0.009,103.0,103.0,101.0,13.4,1505.2,332.0,-0.8,1.8,2471.288,13.29,0.003,251.6
2023-02-02T07:40:03,42.805,6.029,-0.027,0.015,0.028,102.0,103.0,101.0,13.4,1505.2,333.4,-0.8,1.8,2471.297,13.29,0.03,299.1
2023-02-02T07:43:03,42.805,6.029,-0.009,0.007,-0.011,102.0,102.0,101.0,13.4,1505.2,327.1,-0.8,1.8,2471.259,13.29,0.011,307.9
2023-02-02T07:46:03,42.805,6.029,-0.028,-0.008,0.002,103.0,102.0,102.0,13.4,1505.2,320.1,-0.8,1.8,2471.273,13.29,0.029,254.1
2023-02-02T07:49:03,42.805,6.029,-0.015,-0.012,-0.009,103.0,101.0,102.0,13.4,1505.2,329.1,-0.7,1.8,2471.247,13.29,0.019,231.3
2023-02-02T07:52:03,42.805,6.029,-0.007,-0.006,0.019,103.0,102.0,101.0,13.3,1505.2,327.8,-0.8,1.8,2471.244,13.29,0.009,229.4
2023-02-02T07:55:03,42.805,6.029,-0.019,-0.008,-0.01,103.0,102.0,101.0,13.3,1505.2,323.7,-0.8,1.8,2471.259,13.29,0.02,247.2
2023-02-02T07:58:03,42.805,6.029,-0.012,0.0,-0.005,102.0,103.0,101.0,13.4,1505.2,331.7,-0.7,1.8,2471.27,13.29,0.012,270.0
2023-02-02T08:04:03,42.805,6.029,-0.019,0.002,0.003,102.0,102.0,102.0,13.4,1505.2,330.5,-0.8,1.8,2471.305,13.29,0.019,276.0
2023-02-02T08:07:03,42.805,6.029,-0.015,0.009,0.011,103.0,102.0,101.0,13.4,1505.2,328.0,-0.8,1.8,2471.307,13.29,0.017,301.0
2023-02-02T08:10:03,42.805,6.029,0.0,0.011,0.042,102.0,102.0,101.0,13.3,1505.2,320.8,-0.8,1.9,2471.284,13.29,0.011,0.0
2023-02-02T08:13:03,42.805,6.029,-0.018,0.0,-0.014,102.0,102.0,103.0,13.4,1505.2,331.6,-0.8,1.8,2471.314,13.29,0.018,270.0
2023-02-02T08:16:03,42.805,6.029,0.0,0.0,0.002,103.0,101.0,101.0,13.4,1505.2,324.7,-0.7,1.8,2471.325,13.29,0.0,0.0
2023-02-02T08:19:03,42.805,6.029,-0.009,-0.01,-0.017,102.0,102.0,101.0,13.4,1505.2,338.5,-0.8,1.8,2471.335,13.29,0.013,222.0
2023-02-02T08:22:03,42.805,6.029,-0.034,0.012,0.005,104.0,101.0,101.0,13.4,1505.2,326.0,-0.8,1.8,2471.324,13.29,0.036,289.4
2023-02-02T08:25:03,42.805,6.029,-0.018,-0.007,0.01,101.0,103.0,102.0,13.3,1505.2,338.3,-0.7,1.8,2471.28,13.29,0.019,248.8
2023-02-02T08:28:03,42.805,6.029,-0.018,-0.013,-0.017,101.0,102.0,102.0,13.4,1505.2,320.4,-0.8,1.8,2471.306,13.29,0.022,234.2
2023-02-02T08:31:03,42.805,6.029,-0.003,-0.023,-0.02,101.0,103.0,101.0,13.4,1505.2,321.0,-0.7,1.8,2471.271,13.29,0.023,187.4
2023-02-02T08:34:03,42.805,6.029,-0.019,-0.014,0.001,102.0,102.0,101.0,13.4,1505.2,329.1,-0.7,1.8,2471.279,13.29,0.023,233.6
2023-02-02T08:37:03,42.805,6.029,-0.02,-0.009,-0.008,103.0,103.0,102.0,13.4,1505.2,326.0,-0.8,1.8,2471.28,13.29,0.021,245.8
2023-02-02T08:40:03,42.805,6.029,-0.01,-0.022,-0.025,103.0,102.0,101.0,13.3,1505.2,336.4,-0.8,1.8,2471.321,13.29,0.024,204.4
2023-02-02T08:43:03,42.805,6.029,-0.014,-0.008,-0.002,102.0,102.0,102.0,13.4,1505.2,320.2,-0.8,1.8,2471.258,13.29,0.016,240.3
2023-02-02T08:46:03,42.805,6.029,-0.005,-0.006,-0.005,102.0,102.0,102.0,13.4,1505.2,326.3,-0.8,1.8,2471.296,13.29,0.007,219.8
2023-02-02T08:49:03,42.805,6.029,-0.021,-0.005,-0.008,102.0,101.0,102.0,13.4,1505.2,321.7,-0.7,1.8,2471.248,13.29,0.021,256.6
2023-02-02T08:52:03,42.805,6.029,-0.037,-0.014,-0.058,102.0,102.0,102.0,13.3,1505.2,331.8,-0.8,1.8,2471.244,13.29,0.039,249.3
2023-02-02T08:55:03,42.805,6.029,-0.027,-0.015,-0.019,102.0,102.0,102.0,13.4,1505.2,329.6,-0.7,1.8,2471.273,13.29,0.03,240.9
2023-02-02T08:58:03,42.805,6.029,-0.025,0.022,0.0,102.0,101.0,101.0,13.3,1505.2,331.8,-0.8,1.8,2471.283,13.29,0.033,311.3
2023-02-02T09:04:03,42.805,6.029,-0.021,-0.01,-0.005,101.0,101.0,102.0,13.4,1505.2,334.2,-0.8,1.8,2471.286,13.29,0.023,244.5
2023-02-02T09:07:03,42.805,6.029,-0.038,0.012,-0.012,103.0,100.0,103.0,13.4,1505.2,337.5,-0.8,1.8,2471.299,13.29,0.039,287.5
2023-02-02T09:10:03,42.805,6.029,-0.002,-0.024,-0.032,102.0,101.0,101.0,13.4,1505.2,323.7,-0.7,1.8,2471.288,13.29,0.024,184.8
2023-02-02T09:13:03,42.805,6.029,-0.022,-0.01,-0.004,101.0,102.0,102.0,13.4,1505.2,316.0,-0.7,1.8,2471.276,13.29,0.024,245.6
2023-02-02T09:16:03,42.805,6.029,-0.007,0.003,-0.019,102.0,101.0,102.0,13.4,1505.2,325.8,-0.8,1.8,2471.258,13.29,0.007,293.2
2023-02-02T09:19:03,42.805,6.029,-0.021,0.018,-0.001,103.0,101.0,101.0,13.3,1505.2,330.4,-0.7,1.8,2471.264,13.29,0.027,310.6
2023-02-02T09:22:03,42.805,6.029,-0.017,-0.012,-0.025,101.0,101.0,101.0,13.3,1505.2,330.8,-0.7,1.8,2471.268,13.29,0.02,234.8
2023-02-02T09:25:03,42.805,6.029,-0.029,0.002,0.002,102.0,102.0,102.0,13.4,1505.2,333.4,-0.8,1.8,2471.23,13.29,0.029,273.9
2023-02-02T09:28:03,42.805,6.029,-0.021,-0.007,-0.003,102.0,100.0,101.0,13.4,1505.2,316.6,-0.8,1.8,2471.236,13.29,0.022,251.6
2023-02-02T09:31:03,42.805,6.029,-0.019,0.003,0.035,102.0,102.0,100.0,13.4,1505.2,326.7,-0.8,1.8,2471.262,13.29,0.019,279.0
2023-02-02T09:34:03,42.805,6.029,-0.048,-0.002,-0.04,100.0,101.0,102.0,13.3,1505.2,321.6,-0.7,1.8,2471.258,13.29,0.048,267.6
2023-02-02T09:37:03,42.805,6.029,-0.023,-0.017,0.0,101.0,101.0,101.0,13.4,1505.2,320.7,-0.8,1.8,2471.253,13.29,0.028,233.5
2023-02-02T09:40:03,42.805,6.029,-0.007,-0.001,-0.004,102.0,101.0,101.0,13.4,1505.2,339.3,-0.7,1.8,2471.27,13.29,0.007,261.9
2023-02-02T09:43:03,42.805,6.029,-0.015,-0.022,-0.033,102.0,101.0,101.0,13.3,1505.2,333.4,-0.8,1.8,2471.247,13.29,0.026,214.3
2023-02-02T09:46:03,42.805,6.029,-0.022,-0.008,0.006,102.0,101.0,101.0,13.4,1505.2,327.7,-0.8,1.8,2471.23,13.29,0.023,250.0
2023-02-02T09:49:03,42.805,6.029,-0.044,-0.023,-0.04,102.0,102.0,101.0,13.4,1505.2,322.5,-0.7,1.8,2471.236,13.29,0.049,242.4
2023-02-02T09:52:03,42.805,6.029,-0.008,0.002,0.016,101.0,101.0,101.0,13.3,1505.2,321.8,-0.8,1.8,2471.246,13.29,0.008,284.0
2023-02-02T09:55:03,42.805,6.029,-0.034,-0.004,0.016,102.0,102.0,101.0,13.4,1505.2,329.0,-0.8,1.8,2471.238,13.29,0.034,263.3